Regional Weather Roundup
Issued by NWS

Home | Current Version | Previous Version | Text Only | Print | Product List | Glossary On
Versions: 1 2 3 4 5 6 7 8 9 10 11 12 13 14 15 16 17 18 19 20 21 22 23 24 25 26 27 28 29 30 31 32 33 34 35 36 37 38 39 40 41 42 43 44 45 46 47 48 49 50
000
ASUS46 KPQR 201410
RWROR

OREGON REGIONAL WEATHER ROUNDUP
NATIONAL WEATHER SERVICE PORTLAND OR
600 AM PST FRI JAN 20 2017

NOTE: "FAIR" INDICATES FEW OR NO CLOUDS BELOW 12,000 FEET WITH
NO SIGNIFICANT WEATHER AND/OR OBSTRUCTIONS TO VISIBILITY.

ORZ001>013-201500-
NORTHWEST OREGON


CITY           SKY/WX    TMP DP  RH WIND       PRES   REMARKS
ASTORIA        CLOUDY    45  36  70 E6        29.09F
NEWPORT        CLOUDY    43  41  93 E10       29.07F
PORTLAND       CLOUDY    40  34  79 E14       29.15F WCI  32
VANCOUVER WA   CLOUDY    36  34  92 CALM      29.15F
SCAPPOOSE      CLOUDY    35  35 100 CALM      29.16F
HILLSBORO      CLOUDY    41  38  89 S3        29.13F
AURORA         LGT RAIN  41  35  79 SW3       29.15F
MCMINNVILLE    LGT RAIN  42  38  85 N7        29.14F
SALEM          LGT RAIN  40  37  89 N7        29.09F
CORVALLIS        N/A     41  37  87 CALM      29.09F
EUGENE         CLOUDY    41  39  93 NW6       29.08F
$$

ORZ021-028-201500-
SOUTHWEST OREGON


CITY           SKY/WX    TMP DP  RH WIND       PRES   REMARKS
NORTH BEND     CLOUDY    46  43  87 SE7       29.06F
BROOKINGS      LGT RAIN  44  42  93 SE12G21   29.11S
ROSEBURG       LGT RAIN  49  37  63 S7        29.09F
SEXTON SUMMIT  SNOW      31  31 100 SE10G20   29.04F VSB 1/4 WCI  22
MEDFORD        CLOUDY    45  35  68 W5        29.09F
$$

ORZ014>016-041-201500-
COLUMBIA GORGE


CITY           SKY/WX    TMP DP  RH WIND       PRES   REMARKS
TROUTDALE      CLOUDY    41  34  76 E23G33    29.17F
THE DALLES     FOG       30  30 100 CALM      29.32F VSB 3/4
$$

ORZ029>031-041-044-049-050-061>064-502-503-505>511-201500-
EASTERN OREGON


CITY           SKY/WX    TMP DP  RH WIND       PRES   REMARKS
REDMOND        CLOUDY    37  27  67 SE12      29.17F WCI  29
BEND           CLOUDY    34  28  80 SE10      29.16F WCI  26
PRINEVILLE     CLOUDY    37  28  70 SE12G20   29.19F WCI  30
KLAMATH FALLS  CLOUDY    35  28  75 SE17G26   29.16F WCI  25
LAKEVIEW       CLOUDY    32  25  74 S12       29.24F WCI  23
HERMISTON      MOCLDY    29  27  92 NE9       29.32F FOG     WCI  20
PENDLETON      MOCLDY    41  30  65 SE12      29.31F
JOHN DAY       MOCLDY    35  28  74 SE6       29.31F WCI  30
MEACHAM        MOCLDY    32  26  78 SE8       29.32F WCI  25
LA GRANDE      CLOUDY    37  30  75 SE20G28   29.38F WCI  27
BAKER CITY     PTCLDY    30  28  92 E16       29.41F WCI  19
BURNS          LGT SNOW  29  25  85 NE12      29.33F FOG     WCI  19
ROME             N/A     35  26  69 SE12      29.37F WCI  27
ONTARIO        FOG       30  27  88 CALM      29.51F VSB 1/4
$$



USA.gov is the U.S. government's official web portal to all federal, state and local government web resources and services.